Location: Austin
(30.3000°N, 97.7500°W)
Time: 11:46:20
(UTC-05:00)

SPOT 5 - Pass Details

Date: 26 May 2023
Orbit: 621 x 813 km, 98.1° (Epoch: 31 May)

Event Time Altitude Azimuth Distance (km) Brightness Sun altitude
Exits shadow 23:01:35 77° 307° (NW) 764 2.9 -27.6°
Drops below altitude 10° 23:06:10 10° 346° (NNW) 2,201 6.2 -28.2°
Sets 23:08:22 0° 347° (NNW) 3,094 7.1 -28.5°
